(284345) = 2001 ST295 = 2006 RY67

Discovered at Kitt Peak on 2006-09-15 by Spacewatch.

Orbit

Orbit type: Main Belt

Note: WebGL enabled browser required.

epoch2024-03-31.0
epoch JD2460400.5
perihelion date2021-05-03.96225
perihelion JD2459338.46225
argument of perihelion (°)39.31298
ascending node (°)298.24209
inclination (°)1.33448
eccentricity0.0767786
perihelion distance (AU)2.6800125
Tisserand w.r.t. Jupiter3.3
ΔV w.r.t. Earth (km/sec)10.2
semimajor axis (AU)2.9028926
mean anomaly (°)211.63980
mean daily motion (°/day)0.19927710
aphelion distance (AU)3.126
period (years)4.95
P-vector [x]0.92409553
P-vector [y]-0.35623410
P-vector [z]-0.13836444
Q-vector [x]0.38161043
Q-vector [y]0.84072146
Q-vector [z]0.38413657
absolute magnitude16.36
phase slope0.15
uncertainty0
referenceMPEC 2024-F14
observations used273
oppositions16
arc length (days)11880
first opposition used1991
last opposition used2024
residual rms (arc-secs)0.81
perturbers coarse indicatorM-v
perturbers precise indicator003Ek
first observation date used1991-09-07.0
last observation date used2024-03-17.0
computer nameMPCLINUX
JD of orbit computation2456760.647907
perihelion JD uncertainty (days)2.8347E-04
argument of perihelion uncertainty (°)7.9357E-04
ascending node uncertainty (°)7.9198E-04
inclination uncertainty (°)1.4577E-05
eccentricity uncertainty 2.2484E-07
perihelion distance uncertainty (AU)6.4871E-07
Minimum Orbit Intersection Distances (in AU)
for orbit epoch: 2460400.5, reference: E2024-G17
Mercury2.27585
Venus1.95492
Earth1.67054
Mars1.30137
Jupiter2.1537
Saturn6.02486
Uranus15.3166
Neptune27.0038

Observations

284 total observations over interval: 1991 09 07.28891 – 2024 03 17.501959
These data are available for download (format description).

Date (UT) J2000 RA J2000 Dec Magn Location Ref
1991 09 07.28891 22 35 33.06 -07 22 12.1 20.6 V 691 – Steward Observatory, Kitt Peak-Spacewatch MPS 182532
1991 09 07.32262 22 35 31.38 -07 22 21.3   691 – Steward Observatory, Kitt Peak-Spacewatch MPS 182532
1991 09 07.34321 22 35 30.35 -07 22 26.2   691 – Steward Observatory, Kitt Peak-Spacewatch MPS 182532
1999 03 13.26341 10 51 41.29 +05 43 47.8 21.1 V 691 – Steward Observatory, Kitt Peak-Spacewatch MPS 276527
1999 03 13.28480 10 51 40.21 +05 43 54.5 21.3 V 691 – Steward Observatory, Kitt Peak-Spacewatch MPS 276527
1999 03 13.30593 10 51 39.22 +05 44 00.5 21.2 V 691 – Steward Observatory, Kitt Peak-Spacewatch MPS 276527
2001 09 20.24763 23 17 14.70 -02 45 02.9 19.4   704 – Lincoln Laboratory ETS, New Mexico MPS 44073
2001 09 20.26179 23 17 13.96 -02 45 07.8 19.8   704 – Lincoln Laboratory ETS, New Mexico MPS 44073
2001 09 20.27593 23 17 13.33 -02 45 11.8 20.3   704 – Lincoln Laboratory ETS, New Mexico MPS 44073
2001 09 20.29008 23 17 12.68 -02 45 15.0 20.0   704 – Lincoln Laboratory ETS, New Mexico MPS 44073
2001 09 20.30422 23 17 11.96 -02 45 19.6 20.0   704 – Lincoln Laboratory ETS, New Mexico MPS 44073
2001 09 23.24801 23 14 59.88 -02 58 49.8 19.8   704 – Lincoln Laboratory ETS, New Mexico MPS 44073
2001 09 23.26218 23 14 59.22 -02 58 54.0 20.1   704 – Lincoln Laboratory ETS, New Mexico MPS 44073
2001 09 23.27634 23 14 58.46 -02 58 58.2 20.0   704 – Lincoln Laboratory ETS, New Mexico MPS 44073
2001 09 23.29050 23 14 57.98 -02 59 01.5 19.9   704 – Lincoln Laboratory ETS, New Mexico MPS 44073
2004 03 18.36795 11 05 23.32 +04 12 31.1 20.9 V 691 – Steward Observatory, Kitt Peak-Spacewatch MPS 276334
2004 03 18.39864 11 05 21.88 +04 12 39.6 21.4 V 691 – Steward Observatory, Kitt Peak-Spacewatch MPS 276334
2004 03 18.42911 11 05 20.45 +04 12 48.1 21.8 V 691 – Steward Observatory, Kitt Peak-Spacewatch MPS 276334
2006 09 15.19559 23 42 33.96 +00 01 35.8   691 – Steward Observatory, Kitt Peak-Spacewatch MPS 179552
2006 09 15.21287 23 42 33.14 +00 01 30.6   691 – Steward Observatory, Kitt Peak-Spacewatch MPS 179552
2006 09 15.23016 23 42 32.29 +00 01 25.7   691 – Steward Observatory, Kitt Peak-Spacewatch MPS 179552
2006 09 19.20145 23 39 24.72 -00 17 36.1 19.4 R 699 – Lowell Observatory-LONEOS MPS 179552
2006 09 19.22520 23 39 23.53 -00 17 44.6   699 – Lowell Observatory-LONEOS MPS 179552
2006 09 19.24896 23 39 22.33 -00 17 50.6   699 – Lowell Observatory-LONEOS MPS 179552
2006 09 19.27271 23 39 21.16 -00 17 56.2   699 – Lowell Observatory-LONEOS MPS 179552
2006 09 23.15619 23 36 19.21 -00 36 42.8 20.0 V 691 – Steward Observatory, Kitt Peak-Spacewatch MPS 181240
2006 09 23.17353 23 36 18.37 -00 36 47.9 20.0 V 691 – Steward Observatory, Kitt Peak-Spacewatch MPS 181240
2006 09 23.19087 23 36 17.54 -00 36 52.4 20.1 V 691 – Steward Observatory, Kitt Peak-Spacewatch MPS 181240
2006 09 25.24564 23 34 42.92 -00 46 43.1 19.6 R 699 – Lowell Observatory-LONEOS MPS 181240
2006 09 25.26939 23 34 41.77 -00 46 49.5   699 – Lowell Observatory-LONEOS MPS 181240
2006 09 25.29315 23 34 40.60 -00 46 58.5   699 – Lowell Observatory-LONEOS MPS 181240
2006 09 25.31694 23 34 39.47 -00 47 04.9   699 – Lowell Observatory-LONEOS MPS 181240
2006 10 19.20807 23 20 27.52 -02 20 22.2 20.6 V G96 – Mt. Lemmon Survey MPS 183029
2006 10 19.21466 23 20 27.42 -02 20 23.1 20.5 V G96 – Mt. Lemmon Survey MPS 183029
2006 10 19.22137 23 20 27.20 -02 20 24.2 20.7 V G96 – Mt. Lemmon Survey MPS 183029
2006 10 19.22799 23 20 27.09 -02 20 25.2 20.7 V G96 – Mt. Lemmon Survey MPS 183029
2007 12 03.31083 06 35 28.39 +24 08 20.1 20.9 V 691 – Steward Observatory, Kitt Peak-Spacewatch MPS 276527
2007 12 03.32847 06 35 27.62 +24 08 21.6 20.5 V 691 – Steward Observatory, Kitt Peak-Spacewatch MPS 276527
2007 12 03.34611 06 35 26.86 +24 08 22.2 20.6 V 691 – Steward Observatory, Kitt Peak-Spacewatch MPS 276527
2009 01 31.43825 11 51 48.85 -00 30 02.9 20.9 V G96 – Mt. Lemmon Survey MPS 276334
2009 01 31.44552 11 51 48.74 -00 30 02.1 21.1 V G96 – Mt. Lemmon Survey MPS 276334
2009 01 31.46028 11 51 48.52 -00 30 00.9 20.5 V G96 – Mt. Lemmon Survey MPS 276334
2009 02 27.28123 11 38 00.84 +00 44 47.3 20.5 V 691 – Steward Observatory, Kitt Peak-Spacewatch MPS 278692
2009 02 27.30575 11 37 59.73 +00 44 53.5 20.7 V 691 – Steward Observatory, Kitt Peak-Spacewatch MPS 278692
2009 02 27.32338 11 37 58.96 +00 44 58.2 20.5 V 691 – Steward Observatory, Kitt Peak-Spacewatch MPS 278692
2009 02 28.22895 11 37 19.54 +00 48 50.6   691 – Steward Observatory, Kitt Peak-Spacewatch MPS 278692
2009 02 28.24658 11 37 18.74 +00 48 55.3   691 – Steward Observatory, Kitt Peak-Spacewatch MPS 278692
2009 02 28.26420 11 37 17.98 +00 49 00.3   691 – Steward Observatory, Kitt Peak-Spacewatch MPS 278692
2009 03 03.26686 11 35 03.55 +01 02 16.3 20.7 V 691 – Steward Observatory, Kitt Peak-Spacewatch MPS 278692
2009 03 03.28450 11 35 02.75 +01 02 20.9 20.7 V 691 – Steward Observatory, Kitt Peak-Spacewatch MPS 278692
2009 03 03.30214 11 35 01.91 +01 02 26.0 20.7 V 691 – Steward Observatory, Kitt Peak-Spacewatch MPS 278692
2011 07 01.44162 00 10 57.61 +02 17 30.0 21.8 V G96 – Mt. Lemmon Survey MPS 385794
2011 07 01.44625 00 10 57.79 +02 17 31.7 21.3 V G96 – Mt. Lemmon Survey MPS 385794
2011 07 01.45094 00 10 58.00 +02 17 33.3 20.9 V G96 – Mt. Lemmon Survey MPS 385794
2011 07 01.45554 00 10 58.18 +02 17 34.6 21.4 V G96 – Mt. Lemmon Survey MPS 385794
2011 07 07.337215 00 14 57.72 +02 47 21.9 21.5 V H21 – Astronomical Research Observatory, Westfield MPS 387220
2011 07 07.352905 00 14 58.30 +02 47 25.9 21.2 V H21 – Astronomical Research Observatory, Westfield MPS 387220
2011 07 07.368598 00 14 58.84 +02 47 30.2 21.5 V H21 – Astronomical Research Observatory, Westfield MPS 387220
2011 09 19.29144 00 04 52.93 +02 33 04.6 20.4 V 703 – Catalina Sky Survey MPS 392495
2011 09 19.30090 00 04 52.42 +02 33 00.5 19.7 V 703 – Catalina Sky Survey MPS 392495
2011 09 19.31049 00 04 51.96 +02 32 57.8 19.9 V 703 – Catalina Sky Survey MPS 392495
2011 09 19.32004 00 04 51.42 +02 32 56.2 20.0 V 703 – Catalina Sky Survey MPS 392495
2011 09 20.40965 00 04 00.12 +02 27 44.6 19.9 V G96 – Mt. Lemmon Survey MPS 392495
2011 09 20.41738 00 03 59.72 +02 27 42.3 19.9 V G96 – Mt. Lemmon Survey MPS 392495
2011 09 20.42509 00 03 59.36 +02 27 40.0 19.8 V G96 – Mt. Lemmon Survey MPS 392495
2011 09 20.43275 00 03 58.96 +02 27 37.8 19.9 V G96 – Mt. Lemmon Survey MPS 392495
2011 09 22.58367 00 02 17.72 +02 17 18.3 19.2 R D29 – Purple Mountain Observatory, XuYi Station MPS 392495
2011 09 22.59765 00 02 16.97 +02 17 11.9 20.1 R D29 – Purple Mountain Observatory, XuYi Station MPS 392495
2011 09 22.61163 00 02 16.28 +02 17 06.9 20.0 R D29 – Purple Mountain Observatory, XuYi Station MPS 392495
2011 09 22.62562 00 02 15.61 +02 17 04.3 19.6 R D29 – Purple Mountain Observatory, XuYi Station MPS 392495
2011 09 23.30106 00 01 43.48 +02 13 46.9 19.7   704 – Lincoln Laboratory ETS, New Mexico MPS 394130
2011 09 23.31353 00 01 42.83 +02 13 42.9 19.4   704 – Lincoln Laboratory ETS, New Mexico MPS 394130
2011 09 23.32607 00 01 42.24 +02 13 38.9 19.9   704 – Lincoln Laboratory ETS, New Mexico MPS 394130
2011 09 23.33851 00 01 41.64 +02 13 35.1 19.9   704 – Lincoln Laboratory ETS, New Mexico MPS 394130
2011 09 26.29262 23 59 21.91 +01 59 06.1 19.7 V G96 – Mt. Lemmon Survey MPS 394130
2011 09 26.29950 23 59 21.55 +01 59 04.0 19.8 V G96 – Mt. Lemmon Survey MPS 394130
2011 09 26.30635 23 59 21.22 +01 59 01.8 19.6 V G96 – Mt. Lemmon Survey MPS 394130
2011 09 26.31319 23 59 20.90 +01 58 59.9 19.5 V G96 – Mt. Lemmon Survey MPS 394130
2011 10 19.26633 23 43 51.16 +00 17 10.9 20.4 V G96 – Mt. Lemmon Survey MPS 396143
2011 10 19.27156 23 43 50.98 +00 17 09.8 20.4 V G96 – Mt. Lemmon Survey MPS 396143
2011 10 19.27683 23 43 50.84 +00 17 08.8 20.4 V G96 – Mt. Lemmon Survey MPS 396143
2011 10 19.28207 23 43 50.66 +00 17 07.5 20.3 V G96 – Mt. Lemmon Survey MPS 396143
2014 02 09.44115 12 03 27.66 -01 54 32.0 21.3 V G96 – Mt. Lemmon Survey MPS 501547
2014 02 09.44892 12 03 27.46 -01 54 31.5 20.6 V G96 – Mt. Lemmon Survey MPS 501547
2014 02 09.45669 12 03 27.32 -01 54 30.6 21.6 V G96 – Mt. Lemmon Survey MPS 501547
2014 02 09.46447 12 03 27.14 -01 54 30.1 21.1 V G96 – Mt. Lemmon Survey MPS 501547
